Regional Weather Roundup
Issued by NWS Charleston, SC

Current Version | Previous Version | Text Only | Print | Product List | Glossary Off
Versions: 1 2 3 4 5 6 7 8 9 10 11 12 13 14 15 16 17 18 19 20 21 22 23 24 25 26 27 28 29 30 31 32 33 34 35 36 37 38 39 40 41 42 43 44 45 46 47 48 49 50

000
ASUS42 KCHS 260327
RWRCHS

REGIONAL WEATHER ROUNDUP
NATIONAL WEATHER SERVICE CHARLESTON SC
1100 PM EDT SAT APR 25 2015

NOTE: "FAIR" INDICATES FEW OR NO CLOUDS BELOW 12,000 FEET WITH NO
SIGNIFICANT WEATHER AND/OR OBSTRUCTIONS TO VISIBILITY.

NOT ALL STATIONS ARE QUALITY CONTROLLED BY THE NATIONAL
WEATHER SERVICE. USE DATA WITH CAUTION...ESPECIALLY
DEWPOINT OBSERVATIONS.

SCZ027-030-031-034>040-042>050-260400-
...SOUTHEAST SOUTH CAROLINA...

CITY           SKY/WX    TMP DP  RH WIND       PRES   REMARKS
N CHARLESTON   TSTM      71  68  90 SW12G25   29.65F
WATERFRONT PRK   N/A     70 N/A N/A SW15G24     N/A
MOUNT PLEASANT FAIR      72  66  83 MISG      29.63F
PINOPOLIS      NOT AVBL
MONCKS CORNER  LGT RAIN  73  68  83 SW14G22   29.63F
SUMMERVILLE    LGT RAIN  72  70  94 SW6       29.65S
BEAUFORT MCAS  CLOUDY    67  65  93 S8        29.69F
BEAUFORT ARPT  MOCLDY    68  66  94 SW9       29.70S
HILTON HEAD IS CLOUDY    66  66 100 S7        29.73F
WALTERBORO     LGT RAIN  68  66  94 S12G20    29.66R
ALLENDALE      LGT RAIN  68  66  94 VRB7      29.69R

...SOUTHERN MIDLANDS AND PEE DEE...

CITY           SKY/WX    TMP DP  RH WIND       PRES   REMARKS
GEORGETOWN     NOT AVBL
KINGSTREE      NOT AVBL
ORANGEBURG     LGT RAIN  71  68  90 S9        29.63R
BARNWELL       FAIR      72  70  94 SW13G21   29.68R
AIKEN          FAIR      70  63  78 S10       29.66S
MANNING        RAIN      70  55  60 S9        29.62S
COLUMBIA       CLOUDY    68  64  87 SW5       29.61R
SUMTER         NOT AVBL
FLORENCE       CLOUDY    65  63  93 S5        29.60S FOG
MYRTLE BEACH   CLOUDY    72  66  83 SW10      29.63S
N MYRTLE BEACH CLOUDY    69  66  90 SW12      29.62R

$$

GAZ063-065-086>088-099>101-113>116-118-119-134>141-150-260400-
...SOUTHEAST GEORGIA...

CITY           SKY/WX    TMP DP  RH WIND       PRES   REMARKS
SAVANNAH ARPT  LGT RAIN  66  63  90 S7        29.73S
HUNTER AAF     NOT AVBL
FORT STEWART   NOT AVBL
STATESBORO       N/A     67  67 100 CALM      29.69F
SYLVANIA       CLOUDY    66  65  99 CALM      29.69F
CLAXTON        FAIR      68  66  94 CALM      29.68F

...CSRA...CENTRAL AND FAR SOUTHEAST GEORGIA...

CITY           SKY/WX    TMP DP  RH WIND       PRES   REMARKS
THOMSON        CLOUDY    70  69  97 CALM      29.68S
AUGUSTA-BUSH   LGT RAIN  70  67  90 SW18G24   29.64R
AUGUSTA-DANIEL CLOUDY    71  65  81 SW13G24   29.65R
SWAINSBORO     NOT AVBL
VIDALIA        CLOUDY    66  64  94 SW5       29.69F
EASTMAN        FAIR      67  67 100 SW5       29.65S
HAZLEHURST     FAIR      68  68 100 SW6       29.71R
ALMA           CLOUDY    67  66  97 SW5       29.72F
WAYCROSS       CLOUDY    72  71  97 SW3       29.73F
JESUP          CLOUDY    70  70 100 SW3       29.73S
BAXLEY         FAIR      68  68 100 CALM      29.71S
BRUNSWICK      CLOUDY    70  66  88 CALM      29.75F
SAINT SIMONS   CLOUDY    70  67  90 W5        29.75F

$$

SCZ027-028-034-036>038-045-046-048>050-GAZ119-141-260400-
...LAKE AND SUPPLEMENTAL COASTAL OBSERVATIONS...

STATION/POSITION TIME  TEMP    WIND        PRES    WAVE   SWELL
                       AIR SEA DIR/SP/G            HT/PER HT/PER/DIR
                 (UTC) (F)     (DEG/KT/KT) (MB)    (FT/S) (FT/S/D)
UPR LAKE MARION  NOT AVBL
WINYAH BAY       0245   70     220/  8     1002.0S
LAKE MURRAY      0200   68     220/  3/  4 1002.0F
ACE BASIN NERRS  NOT AVBL
FORT PULASKI     0206   67 71  290/ 11/ 12 1008.0R
SAPELO ISLAND    0300   70     260/  4     1007.0S

$$

ANZ835-935-AMZ111-154-330-350-352-354-370-450-454-472-260400-
...C-MAN AND BUOY OBSERVATIONS...

STATION/POSITION TIME  TEMP    WIND        PRES    WAVE   SWELL
                       AIR SEA DIR/SP/G            HT/PER HT/PER/DIR
                 (UTC) (F)     (DEG/KT/KT) (MB)    (FT/S) (FT/S/D)
BUOY 41004       0250   72 71  230/ 19/ 25 1004.5R   4/ 5   2/ 9
BUOY 41008       0250   67 69  330/ 12/ 16 1008.0R   3/ 6   2/340/13
FOLLY BEACH CMAN 0300   69     210/ 15/ 18 1004.3F
CAPERS NEARSHORE NOT AVBL
FRIPP NEARSHORE  0200   67     240/ 19/ 23 1007.0R


STATION/POSITION TIME  TEMP    WIND        PRES    WAVE   SWELL
                       AIR SEA DIR/SP/G            HT/PER HT/PER/DIR
                 (UTC) (F)     (DEG/KT/KT) (MB)    (FT/S) (FT/S/D)
5E ST. MARYS GA  0221      70                N/A     2/13   2/100/13
FRYING PAN BUOY  0250   74 71  230/ 21/ 25 1003.7R   7/ 7   2/ 80/13
BUOY 41025       0250   67 74   10/  2/  6 1001.1F   4/ 6   3/200/ 6
CAPE LOOKOUT NC  0300   66     270/  9/ 11 1001.2F
BUOY 41002       0250   72 71  220/ 23/ 27 1005.9F   6/ 6   2/170/11
BUOY 41010       0220   79 79  200/ 21/ 25 1008.6F
ST AUGUSTINE FL  0300   78 68  230/  9/ 13 1010.2R


$$



USA.gov is the U.S. government's official web portal to all federal, state and local government web resources and services.